Flag for Canada Weather past 2 weeks in Coral Harbour, Nunavut, Canada

Now
39 °F

Passing clouds.


Feels Like: 32 °F
Forecast: 41 / 58 °F
Wind: 12 mph from Northwest

Location: Coral Harbour

Current Time: Jul 5, 2015 at 3:56:53 AM

Latest Report: Jul 5, 2015 at 3:00 AM


Visibility: 15 mi

Pressure: 30.08 "Hg

Humidity: 87%

Dew point: 36 °F

Location of Coral HarbourLocation

Historic Weather in Coral Harbour — Graph

°F

Coral Harbour temperature yesterday

Maximum temperature yesterday: 59 °F (at 1:00 PM)
Minimum temperature yesterday: 41 °F (at 12:00 AM)
Average temperature yesterday: 51 °F

Past Weeks' High & Low Weather Summary

 TemperatureHumidityPressure
High59 °F (Jul 4, 1:00 PM)100% (Jun 21, 1:00 PM)30.08 "Hg (Jun 21, 1:00 PM)
Low30 °F (Jun 22, 3:00 AM)39% (Jul 4, 2:00 PM)29.35 "Hg (Jun 21, 12:00 AM)
Average40 °F85%29.70 "Hg
* Reported Jun 20 2:00 AM — Jul 5 2:00 AM, Coral Harbour, Weather by CustomWeather, © 2015

Note: Actual official high and low records may vary slightly from our data, if they occured in-between our weather recording intervals... More about our weather records

Advertising

Coral Harbour weather history for previous 24 hours

 ConditionsComfort  
Time TempWeatherWind HumidityBarometerVisibility
2:00 AM
Sun, Jul 5
41 °FPassing clouds.12 mph87%30.08 "Hg15 mi
1:00 AM43 °FPassing clouds.12 mph81%30.08 "Hg15 mi
12:00 AM45 °FPassing clouds.12 mph81%30.08 "Hg15 mi
11:00 PM
Sat, Jul 4
46 °FPassing clouds.12 mph76%30.07 "Hg15 mi
10:00 PM48 °FPassing clouds.12 mph71%30.07 "Hg15 mi
9:00 PM54 °FPassing clouds.12 mph63%30.06 "Hg15 mi
8:00 PM55 °FScattered clouds.12 mph59%30.06 "Hg15 mi
7:00 PM57 °FPassing clouds.12 mph59%30.05 "Hg15 mi
6:00 PM57 °FScattered clouds.12 mph48%30.04 "Hg15 mi
5:00 PM57 °FBroken clouds.12 mph48%30.04 "Hg15 mi
4:00 PM57 °FPartly sunny.12 mph48%30.03 "Hg15 mi
3:00 PM59 °FPartly sunny.6 mph42%30.03 "Hg15 mi
2:00 PM59 °FScattered clouds.12 mph39%30.03 "Hg15 mi
1:00 PM59 °FScattered clouds.12 mph45%30.02 "Hg15 mi
12:00 PM57 °FScattered clouds.12 mph44%30.02 "Hg15 mi
11:00 AM57 °FScattered clouds.12 mph44%30.02 "Hg15 mi
10:00 AM54 °FScattered clouds.12 mph63%30.03 "Hg15 mi
9:00 AM54 °FScattered clouds.12 mph47%30.03 "Hg15 mi
8:00 AM52 °FScattered clouds.12 mph54%30.03 "Hg15 mi
7:00 AM48 °FScattered clouds.6 mph62%30.02 "Hg15 mi
6:00 AM45 °FBroken clouds.6 mph76%30.02 "Hg15 mi
5:00 AM43 °FPartly sunny.6 mph87%30.02 "Hg15 mi
4:00 AM43 °FPartly sunny.6 mph81%30.00 "Hg15 mi
3:00 AM41 °FPartly cloudy.6 mph87%30.00 "Hg15 mi
Weather by CustomWeather, © 2015

See weather overviewHow to use our weather pages